Year,Month,Day,Hour,Minute,Value (Times are PST for temperature in C)
2011,09,26,00,00,12.70
2011,09,26,00,01,12.70
2011,09,26,00,02,12.70
2011,09,26,00,03,12.70
2011,09,26,00,04,12.70
2011,09,26,00,05,12.70
2011,09,26,00,06,12.70
2011,09,26,00,07,12.70
2011,09,26,00,08,12.70
2011,09,26,00,09,12.70
2011,09,26,00,10,12.80
2011,09,26,00,11,12.80
2011,09,26,00,12,12.80
2011,09,26,00,13,12.80
2011,09,26,00,14,12.80
2011,09,26,00,15,12.80
2011,09,26,00,16,12.80
2011,09,26,00,17,12.80
2011,09,26,00,18,12.80
2011,09,26,00,19,12.80
2011,09,26,00,20,12.80
2011,09,26,00,21,12.80
2011,09,26,00,22,12.80
2011,09,26,00,23,12.70
2011,09,26,00,24,12.70
2011,09,26,00,25,12.70
2011,09,26,00,26,12.70
2011,09,26,00,27,12.70
2011,09,26,00,28,12.70
2011,09,26,00,29,12.70
2011,09,26,00,30,12.70
2011,09,26,00,31,12.70
2011,09,26,00,32,12.70
2011,09,26,00,33,12.70
2011,09,26,00,34,12.70
2011,09,26,00,35,12.70
2011,09,26,00,36,12.80
2011,09,26,00,37,12.80
2011,09,26,00,38,12.80
2011,09,26,00,39,12.80
2011,09,26,00,40,12.90
2011,09,26,00,41,12.90
2011,09,26,00,42,12.90
2011,09,26,00,43,12.90
2011,09,26,00,44,12.90
2011,09,26,00,45,13.00
2011,09,26,00,46,13.00
2011,09,26,00,47,13.00
2011,09,26,00,48,13.00
2011,09,26,00,49,13.00
2011,09,26,00,50,13.00
2011,09,26,00,51,13.00
2011,09,26,00,52,13.00
2011,09,26,00,53,13.00
2011,09,26,00,54,13.00
2011,09,26,00,55,13.00
2011,09,26,00,56,13.00
2011,09,26,00,57,13.00
2011,09,26,00,58,13.00
2011,09,26,00,59,13.00
2011,09,26,01,00,13.10
2011,09,26,01,01,13.10
2011,09,26,01,02,13.10
2011,09,26,01,03,13.00
2011,09,26,01,04,13.00
2011,09,26,01,05,13.00
2011,09,26,01,06,13.00
2011,09,26,01,07,13.00
2011,09,26,01,08,13.00
2011,09,26,01,09,13.00
2011,09,26,01,10,13.00
2011,09,26,01,11,13.10
2011,09,26,01,12,13.10
2011,09,26,01,13,13.10
2011,09,26,01,14,13.20
2011,09,26,01,15,13.20
2011,09,26,01,16,13.20
2011,09,26,01,17,13.20
2011,09,26,01,18,13.20
2011,09,26,01,19,13.20
2011,09,26,01,20,13.20
2011,09,26,01,21,13.10
2011,09,26,01,22,13.10
2011,09,26,01,23,13.10
2011,09,26,01,24,13.00
2011,09,26,01,25,13.00
2011,09,26,01,26,12.90
2011,09,26,01,27,12.80
2011,09,26,01,28,12.80
2011,09,26,01,29,12.80
2011,09,26,01,30,12.70
2011,09,26,01,31,12.70
2011,09,26,01,32,12.70
2011,09,26,01,33,12.60
2011,09,26,01,34,12.60
2011,09,26,01,35,12.60
2011,09,26,01,36,12.60
2011,09,26,01,37,12.60
2011,09,26,01,38,12.60
2011,09,26,01,39,12.60
2011,09,26,01,40,12.60
2011,09,26,01,41,12.60
2011,09,26,01,42,12.60
2011,09,26,01,43,12.60
2011,09,26,01,44,12.60
2011,09,26,01,45,12.60
2011,09,26,01,46,12.60
2011,09,26,01,47,12.60
2011,09,26,01,48,12.60
2011,09,26,01,49,12.70
2011,09,26,01,50,12.70
2011,09,26,01,51,12.70
2011,09,26,01,52,12.70
2011,09,26,01,53,12.70
2011,09,26,01,54,12.70
2011,09,26,01,55,12.70
2011,09,26,01,56,12.80
2011,09,26,01,57,12.80
2011,09,26,01,58,12.80
2011,09,26,01,59,12.80
2011,09,26,02,00,12.80
2011,09,26,02,01,12.90
2011,09,26,02,02,12.80
2011,09,26,02,03,12.90
2011,09,26,02,04,12.90
2011,09,26,02,05,12.90
2011,09,26,02,06,12.90
2011,09,26,02,07,12.90
2011,09,26,02,08,12.90
2011,09,26,02,09,12.90
2011,09,26,02,10,12.90
2011,09,26,02,11,12.90
2011,09,26,02,12,12.90
2011,09,26,02,13,12.90
2011,09,26,02,14,12.90
2011,09,26,02,15,13.00
2011,09,26,02,16,13.00
2011,09,26,02,17,13.00
2011,09,26,02,18,13.00
2011,09,26,02,19,13.00
2011,09,26,02,20,13.00
2011,09,26,02,21,13.00
2011,09,26,02,22,13.10
2011,09,26,02,23,13.10
2011,09,26,02,24,13.10
2011,09,26,02,25,13.00
2011,09,26,02,26,13.00
2011,09,26,02,27,13.00
2011,09,26,02,28,12.90
2011,09,26,02,29,12.90
2011,09,26,02,30,12.90
2011,09,26,02,31,12.90
2011,09,26,02,32,12.80
2011,09,26,02,33,12.80
2011,09,26,02,34,12.80
2011,09,26,02,35,12.80
2011,09,26,02,36,12.80
2011,09,26,02,37,12.70
2011,09,26,02,38,12.70
2011,09,26,02,39,12.70
2011,09,26,02,40,12.70
2011,09,26,02,41,12.60
2011,09,26,02,42,12.60
2011,09,26,02,43,12.60
2011,09,26,02,44,12.60
2011,09,26,02,45,12.50
2011,09,26,02,46,12.50
2011,09,26,02,47,12.60
2011,09,26,02,48,12.60
2011,09,26,02,49,12.60
2011,09,26,02,50,12.60
2011,09,26,02,51,12.60
2011,09,26,02,52,12.60
2011,09,26,02,53,12.60
2011,09,26,02,54,12.60
2011,09,26,02,55,12.60
2011,09,26,02,56,12.60
2011,09,26,02,57,12.60
2011,09,26,02,58,12.60
2011,09,26,02,59,12.60
2011,09,26,03,00,12.60
2011,09,26,03,01,12.60
2011,09,26,03,02,12.60
2011,09,26,03,03,12.60
2011,09,26,03,04,12.60
2011,09,26,03,05,12.60
2011,09,26,03,06,12.50
2011,09,26,03,07,12.50
2011,09,26,03,08,12.50
2011,09,26,03,09,12.50
2011,09,26,03,10,12.50
2011,09,26,03,11,12.50
2011,09,26,03,12,12.50
2011,09,26,03,13,12.50
2011,09,26,03,14,12.50
2011,09,26,03,15,12.40
2011,09,26,03,16,12.40
2011,09,26,03,17,12.40
2011,09,26,03,18,12.40
2011,09,26,03,19,12.40
2011,09,26,03,20,12.40
2011,09,26,03,21,12.40
2011,09,26,03,22,12.40
2011,09,26,03,23,12.40
2011,09,26,03,24,12.40
2011,09,26,03,25,12.40
2011,09,26,03,26,12.30
2011,09,26,03,27,12.30
2011,09,26,03,28,12.30
2011,09,26,03,29,12.30
2011,09,26,03,30,12.30
2011,09,26,03,31,12.30
2011,09,26,03,32,12.30
2011,09,26,03,33,12.30
2011,09,26,03,34,12.30
2011,09,26,03,35,12.30
2011,09,26,03,36,12.30
2011,09,26,03,37,12.30
2011,09,26,03,38,12.30
2011,09,26,03,39,12.30
2011,09,26,03,40,12.40
2011,09,26,03,41,12.40
2011,09,26,03,42,12.50
2011,09,26,03,43,12.50
2011,09,26,03,44,12.50
2011,09,26,03,45,12.50
2011,09,26,03,46,12.50
2011,09,26,03,47,12.40
2011,09,26,03,48,12.40
2011,09,26,03,49,12.40
2011,09,26,03,50,12.40
2011,09,26,03,51,12.40
2011,09,26,03,52,12.50
2011,09,26,03,53,12.40
2011,09,26,03,54,12.40
2011,09,26,03,55,12.40
2011,09,26,03,56,12.40
2011,09,26,03,57,12.40
2011,09,26,03,58,12.40
2011,09,26,03,59,12.30
2011,09,26,04,00,12.30
2011,09,26,04,01,12.30
2011,09,26,04,02,12.30
2011,09,26,04,03,12.20
2011,09,26,04,04,12.30
2011,09,26,04,05,12.30
2011,09,26,04,06,12.30
2011,09,26,04,07,12.30
2011,09,26,04,08,12.30
2011,09,26,04,09,12.30
2011,09,26,04,10,12.30
2011,09,26,04,11,12.30
2011,09,26,04,12,12.30
2011,09,26,04,13,12.30
2011,09,26,04,14,12.30
2011,09,26,04,15,12.30
2011,09,26,04,16,12.30
2011,09,26,04,17,12.30
2011,09,26,04,18,12.30
2011,09,26,04,19,12.20
2011,09,26,04,20,12.20
2011,09,26,04,21,12.20
2011,09,26,04,22,12.20
2011,09,26,04,23,12.20
2011,09,26,04,24,12.20
2011,09,26,04,25,12.20
2011,09,26,04,26,12.20
2011,09,26,04,27,12.10
2011,09,26,04,28,12.10
2011,09,26,04,29,12.10
2011,09,26,04,30,12.10
2011,09,26,04,31,12.10
2011,09,26,04,32,12.20
2011,09,26,04,33,12.20
2011,09,26,04,34,12.20
2011,09,26,04,35,12.20
2011,09,26,04,36,12.20
2011,09,26,04,37,12.20
2011,09,26,04,38,12.20
2011,09,26,04,39,12.20
2011,09,26,04,40,12.20
2011,09,26,04,41,12.20
2011,09,26,04,42,12.10
2011,09,26,04,43,12.10
2011,09,26,04,44,12.00
2011,09,26,04,45,12.00
2011,09,26,04,46,11.90
2011,09,26,04,47,11.90
2011,09,26,04,48,11.90
2011,09,26,04,49,11.90
2011,09,26,04,50,11.90
2011,09,26,04,51,11.80
2011,09,26,04,52,11.80
2011,09,26,04,53,11.80
2011,09,26,04,54,11.80
2011,09,26,04,55,11.70
2011,09,26,04,56,11.70
2011,09,26,04,57,11.70
2011,09,26,04,58,11.70
2011,09,26,04,59,11.70
2011,09,26,05,00,11.70
2011,09,26,05,01,11.70
2011,09,26,05,02,11.60
2011,09,26,05,03,11.70
2011,09,26,05,04,11.60
2011,09,26,05,05,11.60
2011,09,26,05,06,11.70
2011,09,26,05,07,11.70
2011,09,26,05,08,11.70
2011,09,26,05,09,11.70
2011,09,26,05,10,11.70
2011,09,26,05,11,11.70
2011,09,26,05,12,11.70
2011,09,26,05,13,11.70
2011,09,26,05,14,11.70
2011,09,26,05,15,11.70
2011,09,26,05,16,11.70
2011,09,26,05,17,11.70
2011,09,26,05,18,11.70
2011,09,26,05,19,11.70
2011,09,26,05,20,11.70
2011,09,26,05,21,11.70
2011,09,26,05,22,11.70
2011,09,26,05,23,11.70
2011,09,26,05,24,11.70
2011,09,26,05,25,11.70
2011,09,26,05,26,11.70
2011,09,26,05,27,11.70
2011,09,26,05,28,11.70
2011,09,26,05,29,11.70
2011,09,26,05,30,11.60
2011,09,26,05,31,11.60
2011,09,26,05,32,11.60
2011,09,26,05,33,11.60
2011,09,26,05,34,11.60
2011,09,26,05,35,11.60
2011,09,26,05,36,11.50
2011,09,26,05,37,11.50
2011,09,26,05,38,11.50
2011,09,26,05,39,11.50
2011,09,26,05,40,11.40
2011,09,26,05,41,11.40
2011,09,26,05,42,11.40
2011,09,26,05,43,11.40
2011,09,26,05,44,11.40
2011,09,26,05,45,11.50
2011,09,26,05,46,11.50
2011,09,26,05,47,11.40
2011,09,26,05,48,11.40
2011,09,26,05,49,11.40
2011,09,26,05,50,11.40
2011,09,26,05,51,11.40
2011,09,26,05,52,11.40
2011,09,26,05,53,11.40
2011,09,26,05,54,11.50
2011,09,26,05,55,11.50
2011,09,26,05,56,11.50
2011,09,26,05,57,11.50
2011,09,26,05,58,11.50
2011,09,26,05,59,11.50
2011,09,26,06,00,11.50
2011,09,26,06,01,11.50
2011,09,26,06,02,11.50
2011,09,26,06,03,11.50
2011,09,26,06,04,11.50
2011,09,26,06,05,11.50
2011,09,26,06,06,11.50
2011,09,26,06,07,11.50
2011,09,26,06,08,11.50
2011,09,26,06,09,11.50
2011,09,26,06,10,11.50
2011,09,26,06,11,11.50
2011,09,26,06,12,11.50
2011,09,26,06,13,11.60
2011,09,26,06,14,11.60
2011,09,26,06,15,11.60
2011,09,26,06,16,11.60
2011,09,26,06,17,11.60
2011,09,26,06,18,11.60
2011,09,26,06,19,11.60
2011,09,26,06,20,11.60
2011,09,26,06,21,11.60
2011,09,26,06,22,11.60
2011,09,26,06,23,11.60
2011,09,26,06,24,11.60
2011,09,26,06,25,11.50
2011,09,26,06,26,11.50
2011,09,26,06,27,11.50
2011,09,26,06,28,11.50
2011,09,26,06,29,11.50
2011,09,26,06,30,11.50
2011,09,26,06,31,11.50
2011,09,26,06,32,11.50
2011,09,26,06,33,11.50
2011,09,26,06,34,11.50
2011,09,26,06,35,11.50
2011,09,26,06,36,11.50
2011,09,26,06,37,11.50
2011,09,26,06,38,11.50
2011,09,26,06,39,11.50
2011,09,26,06,40,11.50
2011,09,26,06,41,11.50
2011,09,26,06,42,11.50
2011,09,26,06,43,11.50
2011,09,26,06,44,11.60
2011,09,26,06,45,11.60
2011,09,26,06,46,11.60
2011,09,26,06,47,11.60
2011,09,26,06,48,11.60
2011,09,26,06,49,11.60
2011,09,26,06,50,11.60
2011,09,26,06,51,11.60
2011,09,26,06,52,11.60
2011,09,26,06,53,11.60
2011,09,26,06,54,11.50
2011,09,26,06,55,11.50
2011,09,26,06,56,11.50
2011,09,26,06,57,11.50
2011,09,26,06,58,11.50
2011,09,26,06,59,11.50
2011,09,26,07,00,11.50
2011,09,26,07,01,11.50
2011,09,26,07,02,11.40
2011,09,26,07,03,11.40
2011,09,26,07,04,11.40
2011,09,26,07,05,11.40
2011,09,26,07,06,11.40
2011,09,26,07,07,11.40
2011,09,26,07,08,11.40
2011,09,26,07,09,11.40
2011,09,26,07,10,11.40
2011,09,26,07,11,11.50
2011,09,26,07,12,11.50
2011,09,26,07,13,11.50
2011,09,26,07,14,11.60
2011,09,26,07,15,11.60
2011,09,26,07,16,11.60
2011,09,26,07,17,11.60
2011,09,26,07,18,11.60
2011,09,26,07,19,11.60
2011,09,26,07,20,11.60
2011,09,26,07,21,11.60
2011,09,26,07,22,11.60
2011,09,26,07,23,11.50
2011,09,26,07,24,11.50
2011,09,26,07,25,11.50
2011,09,26,07,26,11.50
2011,09,26,07,27,11.50
2011,09,26,07,28,11.50
2011,09,26,07,29,11.40
2011,09,26,07,30,11.40
2011,09,26,07,31,11.40
2011,09,26,07,32,11.40
2011,09,26,07,33,11.40
2011,09,26,07,34,11.40
2011,09,26,07,35,11.40
2011,09,26,07,36,11.40
2011,09,26,07,37,11.40
2011,09,26,07,38,11.40
2011,09,26,07,39,11.40
2011,09,26,07,40,11.30
2011,09,26,07,41,11.40
2011,09,26,07,42,11.40
2011,09,26,07,43,11.40
2011,09,26,07,44,11.40
2011,09,26,07,45,11.30
2011,09,26,07,46,11.30
2011,09,26,07,47,11.30
2011,09,26,07,48,11.30
2011,09,26,07,49,11.40
2011,09,26,07,50,11.40
2011,09,26,07,51,11.40
2011,09,26,07,52,11.40
2011,09,26,07,53,11.40
2011,09,26,07,54,11.40
2011,09,26,07,55,11.40
2011,09,26,07,56,11.40
2011,09,26,07,57,11.40
2011,09,26,07,58,11.50
2011,09,26,07,59,11.50
2011,09,26,08,00,11.50
2011,09,26,08,01,11.50
2011,09,26,08,02,11.50
2011,09,26,08,03,11.40
2011,09,26,08,04,11.40
2011,09,26,08,05,11.40
2011,09,26,08,06,11.40
2011,09,26,08,07,11.40
2011,09,26,08,08,11.40
2011,09,26,08,09,11.50
2011,09,26,08,10,11.50
2011,09,26,08,11,11.50
2011,09,26,08,12,11.50
2011,09,26,08,13,11.50
2011,09,26,08,14,11.50
2011,09,26,08,15,11.50
2011,09,26,08,16,11.50
2011,09,26,08,17,11.50
2011,09,26,08,18,11.50
2011,09,26,08,19,11.50
2011,09,26,08,20,11.50
2011,09,26,08,21,11.50
2011,09,26,08,22,11.50
2011,09,26,08,23,11.50
2011,09,26,08,24,11.50
2011,09,26,08,25,11.50
2011,09,26,08,26,11.50
2011,09,26,08,27,11.50
2011,09,26,08,28,11.50
2011,09,26,08,29,11.50
2011,09,26,08,30,11.50
2011,09,26,08,31,11.50
2011,09,26,08,32,11.60
2011,09,26,08,33,11.60
2011,09,26,08,34,11.60
2011,09,26,08,35,11.60
2011,09,26,08,36,11.60
2011,09,26,08,37,11.60
2011,09,26,08,38,11.60
2011,09,26,08,39,11.60
2011,09,26,08,40,11.60
2011,09,26,08,41,11.60
2011,09,26,08,42,11.60
2011,09,26,08,43,11.60
2011,09,26,08,44,11.60
2011,09,26,08,45,11.60
2011,09,26,08,46,11.60
2011,09,26,08,47,11.60
2011,09,26,08,48,11.60
2011,09,26,08,49,11.60
2011,09,26,08,50,11.60
2011,09,26,08,51,11.60
2011,09,26,08,52,11.60
2011,09,26,08,53,11.70
2011,09,26,08,54,11.70
2011,09,26,08,55,11.70
2011,09,26,08,56,11.70
2011,09,26,08,57,11.70
2011,09,26,08,58,11.80
2011,09,26,09,01,11.80
2011,09,26,09,02,11.80
2011,09,26,09,03,11.80
2011,09,26,09,04,11.80
2011,09,26,09,05,11.70
2011,09,26,09,06,11.70
2011,09,26,09,07,11.70
2011,09,26,09,08,11.70
2011,09,26,09,09,11.70
2011,09,26,09,10,11.70
2011,09,26,09,11,11.70
2011,09,26,09,12,11.80
2011,09,26,09,13,11.80
2011,09,26,09,14,11.80
2011,09,26,09,15,11.80
2011,09,26,09,16,11.80
2011,09,26,09,17,11.80
2011,09,26,09,18,11.80
2011,09,26,09,19,11.80
2011,09,26,09,20,11.80
2011,09,26,09,21,11.80
2011,09,26,09,22,11.80
2011,09,26,09,23,11.80
2011,09,26,09,24,11.80
2011,09,26,09,25,11.80
2011,09,26,09,26,11.80
2011,09,26,09,27,11.80
2011,09,26,09,28,11.80
2011,09,26,09,29,11.90
2011,09,26,09,30,11.90
2011,09,26,09,31,11.90
2011,09,26,09,32,11.90
2011,09,26,09,33,11.90
2011,09,26,09,34,11.90
2011,09,26,09,35,11.90
2011,09,26,09,36,11.90
2011,09,26,09,37,11.90
2011,09,26,09,38,11.90
2011,09,26,09,39,11.80
2011,09,26,09,40,11.80
2011,09,26,09,41,11.80
2011,09,26,09,42,11.80
2011,09,26,09,43,11.80
2011,09,26,09,44,11.80
2011,09,26,09,45,11.80
2011,09,26,09,46,11.80
2011,09,26,09,47,11.90
2011,09,26,09,48,11.90
2011,09,26,09,49,12.00
2011,09,26,09,50,12.00
2011,09,26,09,51,12.10
2011,09,26,09,52,12.10
2011,09,26,09,53,12.10
2011,09,26,09,54,12.20
2011,09,26,09,55,12.20
2011,09,26,09,56,12.30
2011,09,26,09,57,12.30
2011,09,26,09,58,12.30
2011,09,26,09,59,12.30
2011,09,26,10,00,12.30
2011,09,26,10,01,12.30
2011,09,26,10,02,12.20
2011,09,26,10,03,12.20
2011,09,26,10,04,12.20
2011,09,26,10,05,12.30
2011,09,26,10,06,12.30
2011,09,26,10,07,12.30
2011,09,26,10,08,12.30
2011,09,26,10,09,12.30
2011,09,26,10,10,12.30
2011,09,26,10,11,12.30
2011,09,26,10,12,12.30
2011,09,26,10,13,12.30
2011,09,26,10,14,12.20
2011,09,26,10,15,12.20
2011,09,26,10,16,12.20
2011,09,26,10,17,12.20
2011,09,26,10,18,12.20
2011,09,26,10,19,12.30
2011,09,26,10,20,12.30
2011,09,26,10,21,12.30
2011,09,26,10,22,12.30
2011,09,26,10,23,12.30
2011,09,26,10,24,12.30
2011,09,26,10,25,12.20
2011,09,26,10,26,12.20
2011,09,26,10,27,12.20
2011,09,26,10,28,12.20
2011,09,26,10,29,12.20
2011,09,26,10,30,12.20
2011,09,26,10,31,12.20
2011,09,26,10,32,12.30
2011,09,26,10,33,12.30
2011,09,26,10,34,12.30
2011,09,26,10,35,12.40
2011,09,26,10,36,12.50
2011,09,26,10,37,12.60
2011,09,26,10,38,12.60
2011,09,26,10,39,12.60
2011,09,26,10,40,12.60
2011,09,26,10,41,12.70
2011,09,26,10,42,12.70
2011,09,26,10,43,12.80
2011,09,26,10,44,12.80
2011,09,26,10,45,12.80
2011,09,26,10,46,12.80
2011,09,26,10,47,12.80
2011,09,26,10,48,12.80
2011,09,26,10,49,12.80
2011,09,26,10,50,12.90
2011,09,26,10,51,12.90
2011,09,26,10,52,12.90
2011,09,26,10,53,12.90
2011,09,26,10,54,12.90
2011,09,26,10,55,12.90
2011,09,26,10,56,12.90
2011,09,26,10,57,12.90
2011,09,26,10,58,13.00
2011,09,26,10,59,13.00
2011,09,26,11,00,13.10
2011,09,26,11,01,13.10
2011,09,26,11,02,13.10
2011,09,26,11,03,13.10
2011,09,26,11,04,13.10
2011,09,26,11,05,13.10
2011,09,26,11,06,13.10
2011,09,26,11,07,13.10
2011,09,26,11,08,13.10
2011,09,26,11,09,13.10
2011,09,26,11,10,13.10
2011,09,26,11,11,13.10
2011,09,26,11,12,13.10
2011,09,26,11,13,13.10
2011,09,26,11,14,13.10
2011,09,26,11,15,13.10
2011,09,26,11,16,13.10
2011,09,26,11,17,13.20
2011,09,26,11,18,13.20
2011,09,26,11,19,13.20
2011,09,26,11,20,13.20
2011,09,26,11,21,13.20
2011,09,26,11,22,13.30
2011,09,26,11,23,13.30
2011,09,26,11,24,13.30
2011,09,26,11,25,13.30
2011,09,26,11,26,13.30
2011,09,26,11,27,13.40
2011,09,26,11,28,13.40
2011,09,26,11,29,13.40
2011,09,26,11,30,13.40
2011,09,26,11,31,13.40
2011,09,26,11,32,13.30
2011,09,26,11,33,13.30
2011,09,26,11,34,13.30
2011,09,26,11,35,13.20
2011,09,26,11,36,13.20
2011,09,26,11,37,13.20
2011,09,26,11,38,13.20
2011,09,26,11,39,13.10
2011,09,26,11,40,13.10
2011,09,26,11,41,13.10
2011,09,26,11,42,13.10
2011,09,26,11,43,13.10
2011,09,26,11,44,13.10
2011,09,26,11,45,13.00
2011,09,26,11,46,13.00
2011,09,26,11,47,13.00
2011,09,26,11,48,12.90
2011,09,26,11,49,12.90
2011,09,26,11,50,12.90
2011,09,26,11,51,12.90
2011,09,26,11,52,12.90
2011,09,26,11,53,13.00
2011,09,26,11,54,13.00
2011,09,26,11,55,13.00
2011,09,26,11,56,13.00
2011,09,26,11,57,12.90
2011,09,26,11,58,13.00
2011,09,26,11,59,12.90
2011,09,26,12,00,12.90
2011,09,26,12,01,12.90
2011,09,26,12,02,12.90
2011,09,26,12,03,12.90
2011,09,26,12,04,12.90
2011,09,26,12,05,12.90
2011,09,26,12,06,12.90
2011,09,26,12,07,12.90
2011,09,26,12,08,12.80
2011,09,26,12,09,12.80
2011,09,26,12,10,12.80
2011,09,26,12,11,12.80
2011,09,26,12,12,12.80
2011,09,26,12,13,12.80
2011,09,26,12,14,12.80
2011,09,26,12,15,12.80
2011,09,26,12,16,12.90
2011,09,26,12,17,12.90
2011,09,26,12,18,12.90
2011,09,26,12,19,12.90
2011,09,26,12,20,12.90
2011,09,26,12,21,12.90
2011,09,26,12,22,12.90
2011,09,26,12,23,12.90
2011,09,26,12,24,13.00
2011,09,26,12,25,13.00
2011,09,26,12,26,13.10
2011,09,26,12,27,13.10
2011,09,26,12,28,13.10
2011,09,26,12,29,13.20
2011,09,26,12,30,13.20
2011,09,26,12,31,13.30
2011,09,26,12,32,13.30
2011,09,26,12,33,13.30
2011,09,26,12,34,13.30
2011,09,26,12,35,13.30
2011,09,26,12,36,13.30
2011,09,26,12,37,13.30
2011,09,26,12,38,13.40
2011,09,26,12,39,13.40
2011,09,26,12,40,13.40
2011,09,26,12,41,13.40
2011,09,26,12,42,13.40
2011,09,26,12,43,13.40
2011,09,26,12,44,13.40
2011,09,26,12,45,13.40
2011,09,26,12,46,13.50
2011,09,26,12,47,13.50
2011,09,26,12,48,13.50
2011,09,26,12,49,13.50
2011,09,26,12,50,13.50
2011,09,26,12,51,13.50
2011,09,26,12,52,13.50
2011,09,26,12,53,13.40
2011,09,26,12,54,13.40
2011,09,26,12,55,13.40
2011,09,26,12,56,13.40
2011,09,26,12,57,13.40
2011,09,26,12,58,13.40
2011,09,26,12,59,13.40
2011,09,26,13,00,13.40
2011,09,26,13,01,13.40
2011,09,26,13,02,13.40
2011,09,26,13,03,13.50
2011,09,26,13,04,13.50
2011,09,26,13,05,13.50
2011,09,26,13,06,13.50
2011,09,26,13,07,13.50
2011,09,26,13,08,13.50
2011,09,26,13,09,13.50
2011,09,26,13,10,13.50
2011,09,26,13,11,13.50
2011,09,26,13,12,13.60
2011,09,26,13,13,13.60
2011,09,26,13,14,13.60
2011,09,26,13,15,13.60
2011,09,26,13,16,13.70
2011,09,26,13,17,13.70
2011,09,26,13,18,13.70
2011,09,26,13,19,13.80
2011,09,26,13,20,13.80
2011,09,26,13,21,13.80
2011,09,26,13,22,13.80
2011,09,26,13,23,13.90
2011,09,26,13,24,13.90
2011,09,26,13,25,13.90
2011,09,26,13,26,13.90
2011,09,26,13,27,13.90
2011,09,26,13,28,14.00
2011,09,26,13,29,14.00
2011,09,26,13,30,14.00
2011,09,26,13,31,14.00
2011,09,26,13,32,14.00
2011,09,26,13,33,14.10
2011,09,26,13,34,14.10
2011,09,26,13,35,14.10
2011,09,26,13,36,14.10
2011,09,26,13,37,14.10
2011,09,26,13,38,14.10
2011,09,26,13,39,14.10
2011,09,26,13,40,14.20
2011,09,26,13,41,14.20
2011,09,26,13,42,14.20
2011,09,26,13,43,14.20
2011,09,26,13,44,14.30
2011,09,26,13,45,14.30
2011,09,26,13,46,14.30
2011,09,26,13,47,14.30
2011,09,26,13,48,14.30
2011,09,26,13,49,14.40
2011,09,26,13,50,14.40
2011,09,26,13,51,14.40
2011,09,26,13,52,14.40
2011,09,26,13,53,14.40
2011,09,26,13,54,14.40
2011,09,26,13,55,14.40
2011,09,26,13,56,14.40
2011,09,26,13,57,14.30
2011,09,26,13,58,14.30
2011,09,26,13,59,14.30
2011,09,26,14,00,14.30
2011,09,26,14,01,14.30
2011,09,26,14,02,14.30
2011,09,26,14,03,14.20
2011,09,26,14,04,14.20
2011,09,26,14,05,14.20
2011,09,26,14,06,14.20
2011,09,26,14,07,14.20
2011,09,26,14,08,14.30
2011,09,26,14,09,14.30
2011,09,26,14,10,14.30
2011,09,26,14,11,14.40
2011,09,26,14,12,14.40
2011,09,26,14,13,14.40
2011,09,26,14,14,14.40
2011,09,26,14,15,14.50
2011,09,26,14,16,14.50
2011,09,26,14,17,14.50
2011,09,26,14,18,14.50
2011,09,26,14,19,14.50
2011,09,26,14,20,14.60
2011,09,26,14,21,14.60
2011,09,26,14,22,14.60
2011,09,26,14,23,14.60
2011,09,26,14,24,14.60
2011,09,26,14,25,14.60
2011,09,26,14,26,14.60
2011,09,26,14,27,14.60
2011,09,26,14,28,14.60
2011,09,26,14,29,14.60
2011,09,26,14,30,14.60
2011,09,26,14,31,14.60
2011,09,26,14,32,14.60
2011,09,26,14,33,14.60
2011,09,26,14,34,14.60
2011,09,26,14,35,14.60
2011,09,26,14,36,14.60
2011,09,26,14,37,14.60
2011,09,26,14,38,14.60
2011,09,26,14,39,14.60
2011,09,26,14,40,14.60
2011,09,26,14,41,14.60
2011,09,26,14,42,14.60
2011,09,26,14,43,14.60
2011,09,26,14,44,14.60
2011,09,26,14,45,14.60
2011,09,26,14,46,14.60
2011,09,26,14,47,14.50
2011,09,26,14,48,14.50
2011,09,26,14,49,14.50
2011,09,26,14,50,14.50
2011,09,26,14,51,14.40
2011,09,26,14,52,14.40
2011,09,26,14,53,14.40
2011,09,26,14,54,14.30
2011,09,26,14,55,14.30
2011,09,26,14,56,14.30
2011,09,26,14,57,14.30
2011,09,26,14,58,14.20
2011,09,26,14,59,14.20
2011,09,26,15,00,14.20
2011,09,26,15,01,14.20
2011,09,26,15,02,14.20
2011,09,26,15,03,14.20
2011,09,26,15,04,14.20
2011,09,26,15,05,14.20
2011,09,26,15,06,14.20
2011,09,26,15,07,14.20
2011,09,26,15,08,14.20
2011,09,26,15,09,14.20
2011,09,26,15,10,14.20
2011,09,26,15,11,14.30
2011,09,26,15,12,14.30
2011,09,26,15,13,14.30
2011,09,26,15,14,14.30
2011,09,26,15,15,14.30
2011,09,26,15,16,14.30
2011,09,26,15,17,14.30
2011,09,26,15,18,14.40
2011,09,26,15,19,14.40
2011,09,26,15,20,14.40
2011,09,26,15,21,14.40
2011,09,26,15,22,14.40
2011,09,26,15,23,14.50
2011,09,26,15,24,14.50
2011,09,26,15,25,14.50
2011,09,26,15,26,14.50
2011,09,26,15,27,14.50
2011,09,26,15,28,14.50
2011,09,26,15,29,14.50
2011,09,26,15,30,14.50
2011,09,26,15,31,14.50
2011,09,26,15,32,14.50
2011,09,26,15,33,14.50
2011,09,26,15,34,14.50
2011,09,26,15,35,14.50
2011,09,26,15,36,14.50
2011,09,26,15,37,14.50
2011,09,26,15,38,14.50
2011,09,26,15,39,14.40
2011,09,26,15,40,14.40
2011,09,26,15,41,14.40
2011,09,26,15,42,14.40
2011,09,26,15,43,14.40
2011,09,26,15,44,14.40
2011,09,26,15,45,14.40
2011,09,26,15,46,14.50
2011,09,26,15,47,14.50
2011,09,26,15,48,14.50
2011,09,26,15,49,14.50
2011,09,26,15,50,14.50
2011,09,26,15,51,14.50
2011,09,26,15,52,14.50
2011,09,26,15,53,14.60
2011,09,26,15,54,14.60
2011,09,26,15,55,14.60
2011,09,26,15,56,14.60
2011,09,26,15,57,14.60
2011,09,26,15,58,14.60
2011,09,26,15,59,14.60
2011,09,26,16,00,14.60
2011,09,26,16,01,14.60
2011,09,26,16,02,14.60
2011,09,26,16,03,14.60
2011,09,26,16,04,14.60
2011,09,26,16,05,14.60
2011,09,26,16,06,14.60
2011,09,26,16,07,14.60
2011,09,26,16,08,14.60
2011,09,26,16,09,14.60
2011,09,26,16,10,14.70
2011,09,26,16,11,14.70
2011,09,26,16,12,14.70
2011,09,26,16,13,14.70
2011,09,26,16,14,14.70
2011,09,26,16,15,14.70
2011,09,26,16,16,14.70
2011,09,26,16,17,14.70
2011,09,26,16,18,14.70
2011,09,26,16,19,14.70
2011,09,26,16,20,14.70
2011,09,26,16,21,14.70
2011,09,26,16,22,14.70
2011,09,26,16,23,14.70
2011,09,26,16,24,14.70
2011,09,26,16,25,14.70
2011,09,26,16,26,14.70
2011,09,26,16,27,14.70
2011,09,26,16,28,14.70
2011,09,26,16,29,14.70
2011,09,26,16,30,14.70
2011,09,26,16,31,14.60
2011,09,26,16,32,14.60
2011,09,26,16,33,14.60
2011,09,26,16,34,14.60
2011,09,26,16,35,14.60
2011,09,26,16,36,14.60
2011,09,26,16,37,14.60
2011,09,26,16,38,14.60
2011,09,26,16,39,14.70
2011,09,26,16,40,14.70
2011,09,26,16,41,14.60
2011,09,26,16,42,14.70
2011,09,26,16,43,14.70
2011,09,26,16,44,14.70
2011,09,26,16,45,14.70
2011,09,26,16,46,14.70
2011,09,26,16,47,14.70
2011,09,26,16,48,14.70
2011,09,26,16,49,14.60
2011,09,26,16,50,14.60
2011,09,26,16,51,14.60
2011,09,26,16,52,14.60
2011,09,26,16,53,14.60
2011,09,26,16,54,14.60
2011,09,26,16,55,14.60
2011,09,26,16,56,14.50
2011,09,26,16,57,14.50
2011,09,26,16,58,14.50
2011,09,26,16,59,14.50
2011,09,26,17,00,14.50
2011,09,26,17,01,14.50
2011,09,26,17,02,14.50
2011,09,26,17,03,14.40
2011,09,26,17,04,14.40
2011,09,26,17,05,14.40
2011,09,26,17,06,14.40
2011,09,26,17,07,14.40
2011,09,26,17,08,14.40
2011,09,26,17,09,14.40
2011,09,26,17,10,14.40
2011,09,26,17,11,14.40
2011,09,26,17,12,14.40
2011,09,26,17,13,14.40
2011,09,26,17,14,14.40
2011,09,26,17,15,14.40
2011,09,26,17,16,14.40
2011,09,26,17,17,14.40
2011,09,26,17,18,14.40
2011,09,26,17,19,14.40
2011,09,26,17,20,14.40
2011,09,26,17,21,14.40